Location: Asheville, NC
(35.6000°N, 82.5500°W)
Time: 04:38:08
(UTC-05:00)

N. Korean satellite - Pass Details

Date: 16 December 2017
Orbit: 458 x 515 km, 97.2° (Epoch: 22 January)

Event Time Altitude Azimuth Distance (km) Brightness Sun altitude
Rises 18:39:44 0° 173° (S) 2,582 10.4 -16.0°
Reaches altitude 10° 18:41:48 10° 176° (S) 1,710 9.5 -16.4°
Maximum altitude 18:45:29 67° 260° (W) 555 7.0 -17.1°
Drops below altitude 10° 18:49:13 10° 343° (NNW) 1,741 9.4 -17.8°
Sets 18:51:21 0° 346° (NNW) 2,635 10.3 -18.2°
